{"data":{"norad_id":58724,"intl_designator":"2024-002V","name":"STARLINK-30893","alt_names":[],"object_type":"PAYLOAD","status":"ACTIVE","operator":null,"country":"US","launch_date":"2024-01-03","launch_site_code":"AFWTR","launch_vehicle":null,"mission":null,"orbit_class":"UNKNOWN","rcs_meters":null,"size_class":null,"mass_kg":null,"dimensions":null,"purposes":["comms"],"wikipedia_slug":null,"has_3d_model":false,"image_url":null,"decayed_at":null,"tle_current":{"epoch":"2026-09-20T21:37:18.413184Z","epoch_age_seconds":115146,"freshness":"FRESH","line1":"1 58724U 24002V   26263.90090756  .00000591  00000+0  28645-4 0  9992","line2":"2 58724  53.1596  39.6134 0000981 104.9115 255.1997 15.34382219151948","mean_motion":15.34382219,"eccentricity":9.81e-5,"inclination_deg":53.1596,"raan_deg":39.6134,"arg_perigee_deg":104.9115,"mean_anomaly_deg":255.1997,"bstar":2.8645e-5,"rev_number":15194,"period_min":93.848845624559,"perigee_km":462.08499798455,"apogee_km":463.42718120873,"semimajor_km":6840.8930895966,"source":"CELESTRAK","updated_at":"2026-09-21T09:00:33.951021Z"}}}